| time (UTC) | temp C | wind direction | speed KPH | gust KPH | rain 1hr cm | rain 24hr cm | rain mn cm | humidity % | barometer mb |
| 20260504044535 | 8 | 0 | 0.0 | 0.0 | 0.00 | 0.00 | 0.00 | 68 | 1005.8 |
| 20260504043036 | 9 | 0 | 0.0 | 14.5 | 0.00 | 0.00 | 0.00 | 65 | 1006.0 |
| 20260504041541 | 10 | 0 | 0.0 | 0.0 | 0.00 | 0.00 | 0.00 | 63 | 1006.1 |
| 20260504040045 | 10 | 0 | 0.0 | 0.0 | 0.00 | 0.00 | 0.00 | 60 | 1006.2 |
| 20260504034542 | 10 | 0 | 0.0 | 0.0 | 0.00 | 0.00 | 0.00 | 60 | 1006.4 |
| 20260504033049 | 11 | 0 | 0.0 | 0.0 | 0.00 | 0.00 | 0.00 | 57 | 1006.7 |
| 20260504031542 | 11 | 0 | 0.0 | 0.0 | 0.00 | 0.00 | 0.00 | 56 | 1006.9 |
| 20260504030037 | 12 | 0 | 0.0 | 0.0 | 0.00 | 0.00 | 0.00 | 53 | 1006.8 |
| 20260504024544 | 12 | 0 | 0.0 | 0.0 | 0.00 | 0.00 | 0.00 | 52 | 1006.9 |
| 20260504023045 | 13 | 0 | 0.0 | 0.0 | 0.00 | 0.00 | 0.00 | 50 | 1006.7 |
| 20260504021549 | 14 | 0 | 0.0 | 0.0 | 0.00 | 0.00 | 0.00 | 47 | 1006.7 |
| 20260504020047 | 15 | 0 | 0.0 | 0.0 | 0.00 | 0.00 | 0.00 | 43 | 1006.6 |
| 20260504014536 | 17 | 0 | 0.0 | 0.0 | 0.00 | 0.00 | 0.00 | 40 | 1006.6 |
| 20260504013041 | 18 | 0 | 0.0 | 1.6 | 0.00 | 0.00 | 0.00 | 38 | 1006.5 |
| 20260504011542 | 19 | 0 | 0.0 | 0.0 | 0.00 | 0.00 | 0.00 | 35 | 1006.4 |
| 20260504010040 | 20 | 0 | 0.0 | 0.0 | 0.00 | 0.00 | 0.00 | 33 | 1006.2 |
| 20260504004551 | 20 | 0 | 0.0 | 0.0 | 0.00 | 0.00 | 0.00 | 32 | 1006.2 |
| 20260504003039 | 21 | 0 | 0.0 | 0.0 | 0.00 | 0.00 | 0.00 | 33 | 1006.1 |
| 20260504001534 | 21 | 0 | 0.0 | 0.0 | 0.00 | 0.00 | 0.00 | 32 | 1006.2 |
| 20260504000044 | 22 | 0 | 0.0 | 0.0 | 0.00 | 0.00 | 0.00 | 30 | 1006.1 |
| 20260503234543 | 22 | 0 | 0.0 | 0.0 | 0.00 | 0.00 | 0.00 | 30 | 1006.0 |
| 20260503233040 | 22 | 0 | 0.0 | 0.0 | 0.00 | 0.00 | 0.00 | 29 | 1006.0 |
| 20260503231549 | 23 | 0 | 0.0 | 3.2 | 0.00 | 0.00 | 0.00 | 29 | 1006.0 |
| 20260503230040 | 22 | 0 | 0.0 | 0.0 | 0.00 | 0.00 | 0.00 | 29 | 1006.0 |
| 20260503224535 | 23 | 0 | 0.0 | 0.0 | 0.00 | 0.00 | 0.00 | 29 | 1005.9 |
| 20260503223035 | 23 | 0 | 0.0 | 0.0 | 0.00 | 0.00 | 0.00 | 30 | 1006.0 |
| 20260503221543 | 23 | 0 | 0.0 | 0.0 | 0.00 | 0.00 | 0.00 | 31 | 1005.9 |
| 20260503220043 | 23 | 0 | 0.0 | 0.0 | 0.00 | 0.00 | 0.00 | 28 | 1005.8 |
| 20260503214539 | 23 | 0 | 0.0 | 0.0 | 0.00 | 0.00 | 0.00 | 31 | 1005.9 |
| 20260503213043 | 23 | 0 | 0.0 | 0.0 | 0.00 | 0.00 | 0.00 | 29 | 1005.9 |
| 20260503211542 | 23 | 28 | 3.2 | 14.5 | 0.00 | 0.00 | 0.00 | 28 | 1005.9 |
| 20260503210035 | 23 | 0 | 0.0 | 16.1 | 0.00 | 0.00 | 0.00 | 30 | 1005.9 |
| 20260503204534 | 23 | 0 | 0.0 | 12.9 | 0.00 | 0.00 | 0.00 | 33 | 1006.1 |
| 20260503203041 | 23 | 346 | 9.7 | 27.4 | 0.00 | 0.00 | 0.00 | 33 | 1006.2 |
| 20260503201541 | 23 | 327 | 8.0 | 30.6 | 0.00 | 0.00 | 0.00 | 34 | 1006.2 |
| 20260503200040 | 23 | 7 | 16.1 | 33.8 | 0.00 | 0.00 | 0.00 | 36 | 1006.4 |
| 20260503194544 | 22 | 346 | 17.7 | 38.6 | 0.00 | 0.00 | 0.00 | 34 | 1006.2 |
| 20260503193042 | 22 | 335 | 17.7 | 33.8 | 0.00 | 0.00 | 0.00 | 39 | 1006.4 |
| 20260503191536 | 22 | 345 | 11.3 | 30.6 | 0.00 | 0.00 | 0.00 | 40 | 1006.5 |
| 20260503190047 | 22 | 345 | 11.3 | 29.0 | 0.00 | 0.00 | 0.00 | 38 | 1006.2 |
| 20260503184555 | 22 | 17 | 19.3 | 38.6 | 0.00 | 0.00 | 0.00 | 37 | 1006.2 |
| 20260503183041 | 22 | 3 | 9.7 | 25.7 | 0.00 | 0.00 | 0.00 | 39 | 1006.2 |
| 20260503181538 | 22 | 36 | 14.5 | 25.7 | 0.00 | 0.00 | 0.00 | 39 | 1006.2 |
| 20260503180036 | 22 | 275 | 9.7 | 27.4 | 0.00 | 0.00 | 0.00 | 41 | 1006.4 |
| 20260503174549 | 22 | 33 | 9.7 | 17.7 | 0.00 | 0.00 | 0.00 | 42 | 1006.6 |
| 20260503173041 | 21 | 15 | 6.4 | 14.5 | 0.00 | 0.00 | 0.00 | 45 | 1006.7 |
| 20260503171541 | 20 | 12 | 12.9 | 25.7 | 0.00 | 0.00 | 0.00 | 45 | 1006.8 |
| 20260503081545 | 11 | 210 | 4.8 | 46.7 | 0.00 | 0.00 | 0.00 | 52 | 1012.5 |